User: anonymous   Login
Location: Marcé
(47.5801°N, 0.3280°W)
Time: 06:18:51
(UTC+02:00)
Language:

DMSP 5D-2 F11 DEB - Orbit

View from above orbital plane
View from above orbital plane
View from above satellite
View from above satellite

Ground track
Ground track

The orbit data is extracted from the following two-line orbital elements,

1 35532U 91082CP  24194.83973408  .00008875  00000-0  36768-2 0  9990
2 35532  98.7243 327.7748 0104980 331.9151  27.6388 14.23842028 24246
Epoch (UTC): 12 July 2024 20:09:13
Eccentricity: 0.0104980
inclination: 98.7243°
perigee height: 737 km
apogee height: 888 km
right ascension of ascending node: 327.7748°
argument of perigee: 331.9151°
revolutions per day: 14.23842028
mean anomaly at epoch: 27.6388°
orbit number at epoch: 2424

The dashed part of the orbit path shows where the satellite is in the earth's shadow,  

DLR